sat.trackr.live / text

‹ back to catalog

ONEWEB-0065

NORAD 45164 · 2020-008AK

PAYLOAD ACTIVE UNKNOWN

§ Identity

Operator
Country
UK
Launch date
2020-02-06
Launch site
TYMSC
Launch vehicle
Mass (kg)
RCS (m²)

Purposes: comms

External: N2YO · Heavens-Above · Gunter

§ Orbital elements

Epoch: 2026-05-25T03:03:08.732160Z

Period
109.89 min
Inclination
87.8861°
Eccentricity
0.0002114
Mean motion
13.10374718 rev/d
Perigee alt
1,220.1 km
Apogee alt
1,223.3 km
Semi-major
7,599.8 km
B*
-1.7012e-3
RAAN
40.8628°
Arg perigee
87.0563°
Mean anomaly
273.0806°
Rev number
30,486

§ Raw data

ONEWEB-00651 45164U 20008AK  26145.12718440 -.00000581  00000+0 -17012-2 0  99932 45164  87.8861  40.8628 0002114  87.0563 273.0806 13.10374718304867

JSON: /api/v1/satellites/45164 · /tle

For live sub-satellite position, see the globe view (requires WebGL).

§ Visibility from observer

Set your observer location to see the next 7 days of passes ≥ 10°. The values pass through the URL so the page stays shareable.

No JS? Fill the form by hand. The geolocation button needs JavaScript.